Location: Erlenbrunn
(49.1717°N, 7.6142°E)
Time: 12:04:32
(UTC+00:00)

Landsat 5 - Pass Details

Date: 25 November 2020
Orbit: 528 x 654 km, 98.2° (Epoch: 25 January)

Event Time Altitude Azimuth Distance (km) Brightness Sun altitude
Rises 16:01:38 0° 20° (NNE) 2,901 6.6 -4.2°
Reaches altitude 10° 16:03:55 10° 27° (NNE) 2,009 5.7 -4.6°
Maximum altitude 16:08:05 41° 99° (E) 924 4.1 -5.2°
Drops below altitude 10° 16:12:19 10° 170° (S) 2,045 6.4 -5.8°
Sets 16:14:38 0° 177° (S) 2,959 7.4 -6.1°
